Location: Stigler
(35.2540°N, 95.1230°W)
Time: 08:55:08
(UTC-06:00)

Cosmos 1805 - Pass Details

Date: 26 September 2017
Orbit: 526 x 534 km, 82.5° (Epoch: 15 December)

Event Time Altitude Azimuth Distance (km) Brightness Sun altitude
Rises 19:53:13 0° 163° (SSE) 2,649 6.6 -9.4°
Reaches altitude 10° 19:55:32 10° 151° (SSE) 1,764 5.6 -9.9°
Maximum altitude 19:58:54 29° 91° (E) 990 4.0 -10.6°
Drops below altitude 10° 20:02:17 10° 31° (NNE) 1,774 5.7 -11.3°
Sets 20:04:37 0° 20° (NNE) 2,667 6.7 -11.8°
